Regional Weather Roundup
Issued by NWS

Home | Current Version | Previous Version | Graphics & Text | Print | Product List | Glossary On
Versions: 1 2 3 4 5 6 7 8 9 10 11 12 13 14 15 16 17 18 19 20 21 22 23 24 25 26 27 28 29 30 31 32 33 34 35 36 37 38 39 40 41 42 43 44 45 46 47 48 49 50
000
ASUS43 KFSD 271710
RWRSD

WEATHER ROUNDUP FOR SOUTH DAKOTA
NATIONAL WEATHER SERVICE SIOUX FALLS SD
1200 PM CDT WED MAY 27 2015

NOTE: "FAIR" INDICATES FEW OR NO CLOUDS BELOW 12,000 FEET WITH NO
SIGNIFICANT WEATHER AND/OR OBSTRUCTIONS TO VISIBILITY.


SDZ001>005-009-010-012>017-271800-
NORTHWEST AND NORTH CENTRAL SOUTH DAKOTA

CITY           SKY/WX    TMP DP  RH WIND       PRES   REMARKS
BUFFALO          N/A     71  52  50 VRB7      29.90S
FAITH            N/A     72  52  49 S18       29.97S
MOBRIDGE       MOSUNNY   77  51  40 S7        29.97S
$$

SDZ012>016-024>037-041>051-057-063-072>074-271800-
SOUTHWEST AND SOUTH CENTRAL SOUTH DAKOTA

CITY           SKY/WX    TMP DP  RH WIND       PRES   REMARKS
RAPID CTY ARPT PTSUNNY   69  55  60 S14       29.99F
PIERRE         SUNNY     78  49  35 SW14G22   29.99S
CUSTER         CLOUDY    60  49  66 CALM      30.07S
ELLSWORTH AFB  PTSUNNY   68  55  64 S15       29.98F
PHILIP         CLOUDY    71  54  54 SW17      30.00R
PINE RIDGE     PTSUNNY   69  55  60 S14       30.02F
SPEARFISH      FAIR      64  54  68 E8        30.00S
WINNER         FAIR      77  50  38 S14       30.04S
$$

SDZ004>011-016>023-039-040-271800-
NORTHEAST SOUTH DAKOTA

CITY           SKY/WX    TMP DP  RH WIND       PRES   REMARKS
ABERDEEN       SUNNY     81  51  35 N7        29.98R
WATERTOWN      SUNNY     77  49  37 NW10      30.01R
BROOKINGS      SUNNY     75  52  43 NW9       30.02R
SISSETON         N/A     79  49  34 VRB7      29.96R
$$

SDZ017-020-022-023-036>040-048>070-271800-
SOUTHEAST SOUTH DAKOTA

CITY           SKY/WX    TMP DP  RH WIND       PRES   REMARKS
SIOUX FALLS    MOSUNNY   79  53  40 NW7       30.02R
HURON          SUNNY     78  52  40 N3        30.01R
CHAMBERLAIN    MOSUNNY   76  51  41 S9        30.03S
MITCHELL       SUNNY     79  54  41 SW8       30.03R
YANKTON        SUNNY     75  54  46 CALM      30.03S
$$

ABBREVIATIONS USED IN REMARKS
   TC - TEMPERATURE IN CELSIUS
  WCI - WIND CHILL INDEX
   HX - HEAT INDEX
  VSB - VISIBILITY



USA.gov is the U.S. government's official web portal to all federal, state and local government web resources and services.